TimeEDT,TemperatureF,Dew PointF,Humidity,Sea Level PressureIn,VisibilityMPH,Wind Direction,Wind SpeedMPH,Gust SpeedMPH,PrecipitationIn,Events,Conditions,WindDirDegrees,DateUTC
12:54 AM,46.9,33.1,59,30.35,10.0,North,4.6,-,N/A,,Clear,10,2013-04-21 04:54:00
1:54 AM,45.0,32.0,60,30.37,10.0,Variable,3.5,-,N/A,,Clear,0,2013-04-21 05:54:00
2:54 AM,44.1,30.9,60,30.39,10.0,Variable,3.5,-,N/A,,Clear,0,2013-04-21 06:54:00
3:54 AM,41.0,30.9,67,30.42,10.0,Calm,Calm,-,N/A,,Clear,0,2013-04-21 07:54:00
4:54 AM,37.9,33.1,83,30.45,10.0,Calm,Calm,-,N/A,,Clear,0,2013-04-21 08:54:00
5:54 AM,37.0,33.1,86,30.48,10.0,Calm,Calm,-,N/A,,Clear,0,2013-04-21 09:54:00
6:54 AM,37.0,32.0,82,30.51,10.0,Calm,Calm,-,N/A,,Clear,0,2013-04-21 10:54:00
7:54 AM,43.0,30.0,60,30.53,10.0,Variable,4.6,-,N/A,,Clear,0,2013-04-21 11:54:00
8:54 AM,46.0,30.0,54,30.55,10.0,NE,8.1,-,N/A,,Clear,50,2013-04-21 12:54:00
9:54 AM,48.9,28.9,46,30.57,10.0,NE,9.2,-,N/A,,Clear,50,2013-04-21 13:54:00
10:54 AM,51.1,28.9,43,30.58,10.0,Variable,5.8,16.1,N/A,,Clear,0,2013-04-21 14:54:00
11:54 AM,51.1,27.0,39,30.58,10.0,Variable,5.8,-,N/A,,Clear,0,2013-04-21 15:54:00
12:54 PM,52.0,27.0,38,30.57,10.0,North,6.9,-,N/A,,Clear,10,2013-04-21 16:54:00
1:54 PM,54.0,28.0,37,30.55,10.0,ESE,8.1,-,N/A,,Clear,110,2013-04-21 17:54:00
2:54 PM,55.0,28.9,37,30.53,10.0,ENE,6.9,-,N/A,,Clear,70,2013-04-21 18:54:00
3:54 PM,55.9,27.0,33,30.52,10.0,Variable,3.5,-,N/A,,Clear,0,2013-04-21 19:54:00
4:54 PM,55.9,28.0,34,30.51,10.0,Variable,5.8,-,N/A,,Clear,0,2013-04-21 20:54:00
5:54 PM,55.0,26.1,33,30.52,10.0,Variable,6.9,-,N/A,,Clear,0,2013-04-21 21:54:00
6:54 PM,53.1,27.0,37,30.52,10.0,NE,4.6,-,N/A,,Clear,40,2013-04-21 22:54:00
7:54 PM,48.9,30.0,48,30.53,10.0,East,4.6,-,N/A,,Clear,80,2013-04-21 23:54:00
8:54 PM,46.0,28.9,51,30.55,10.0,Calm,Calm,-,N/A,,Clear,0,2013-04-22 00:54:00
9:54 PM,41.0,30.9,67,30.57,10.0,Calm,Calm,-,N/A,,Clear,0,2013-04-22 01:54:00
10:54 PM,39.0,32.0,76,30.58,10.0,Calm,Calm,-,N/A,,Clear,0,2013-04-22 02:54:00
11:54 PM,37.0,32.0,82,30.57,10.0,Calm,Calm,-,N/A,,Clear,0,2013-04-22 03:54:00